Cecil Field, FL

7:33 AM EST on November 25, 2017 (GMT -0500)
Cecil

Weather History for KVQQ - March, 2013

Change the Weather History Date:

Sunday, March 24, 2013

  Actual Average (KNIP) Record (KNIP)
Temperature  
Mean Temperature 72 °F -  
Max Temperature 84 °F 73 °F 87 °F (2011)
Min Temperature 59 °F 55 °F 46 °F (2001)
Cooling Degree Days 6    
Growing Degree Days 22 (Base 50)    
Moisture  
Dew Point 65 °F    
Average Humidity 89    
Maximum Humidity 100    
Minimum Humidity 54    
Precipitation  
Precipitation 0.00 in - - ()
Sea Level Pressure  
Sea Level Pressure 29.66 in    
Wind  
Wind Speed 6 mph (SSW)    
Max Wind Speed 23 mph    
Max Gust Speed 31 mph    
Visibility 9 miles    
Events Rain , Thunderstorm    
Averages and records for this station are not official NWS values.
T = Trace of Precipitation, MM = Missing Value Source: NWS Daily Summary

Daily Weather History Graph

Daily Weather History Graph

Search for Another Location

Airport or City:

Trip Planner

Search our weather history database for the weather conditions in past years. The results will help you decide how hot, cold, wet, or windy it might be!

Date:

Astronomy

Mar. 24, 2013 Rise Set
Actual Time 7:26 AM EDT 7:41 PM EDT
Civil Twilight 7:02 AM EDT 8:05 PM EDT
Nautical Twilight 6:34 AM EDT 8:33 PM EDT
Astronomical Twilight 6:05 AM EDT 9:01 PM EDT
Moon 5:17 PM EDT (3/24) 5:25 AM EDT (3/24)
Length of Visible Light 13h 03m
Length of Day
12h 15m
Waxing Gibbous, 91% of the Moon is Illuminated
Mar 24
Waxing Gibbous
Mar 27
Full
Apr 3
Last Quarter
Apr 10
New
Apr 18
First Quarter

Hourly Weather History & Observations

Time (EDT) Temp. Heat Index Dew Point Humidity Pressure Visibility Wind Dir Wind Speed Gust Speed Precip Events Conditions
12:15 AM 59.0 °F - 59.0 °F 100% 29.81 in 9.0 mi Calm Calm - N/A   Mostly Cloudy
12:35 AM 59.0 °F - 59.0 °F 100% 29.80 in 10.0 mi Calm Calm - N/A   Overcast
12:55 AM 59.0 °F - 59.0 °F 100% 29.79 in 10.0 mi SE 3.5 mph - N/A   Overcast
1:15 AM 60.8 °F - 60.8 °F 100% 29.78 in 10.0 mi SE 4.6 mph - N/A   Overcast
1:35 AM 62.6 °F - 62.6 °F 100% 29.78 in 10.0 mi SE 5.8 mph - N/A   Overcast
1:55 AM 62.6 °F - 62.6 °F 100% 29.78 in 10.0 mi SE 4.6 mph - N/A   Overcast
2:15 AM 62.6 °F - 62.6 °F 100% 29.76 in 10.0 mi SSE 3.5 mph - N/A   Overcast
2:35 AM 62.6 °F - 62.6 °F 100% 29.76 in 10.0 mi SSE 4.6 mph - N/A   Overcast
2:55 AM 64.4 °F - 64.4 °F 100% 29.76 in 10.0 mi Calm Calm - N/A   Overcast
3:35 AM 64.4 °F - 64.4 °F 100% 29.74 in 10.0 mi SSE 5.8 mph - N/A   Mostly Cloudy
3:55 AM 64.4 °F - 64.4 °F 100% 29.72 in 10.0 mi Calm Calm - N/A   Scattered Clouds
4:15 AM 64.4 °F - 64.4 °F 100% 29.70 in 10.0 mi SSE 5.8 mph - N/A   Mostly Cloudy
4:35 AM 64.4 °F - 64.4 °F 100% 29.69 in 10.0 mi SE 4.6 mph - N/A   Scattered Clouds
4:55 AM 64.4 °F - 64.4 °F 100% 29.68 in 10.0 mi SSE 3.5 mph - N/A   Scattered Clouds
5:15 AM 64.4 °F - 64.4 °F 100% 29.67 in 10.0 mi SSE 4.6 mph - N/A   Mostly Cloudy
5:35 AM 64.4 °F - 64.4 °F 100% 29.66 in 10.0 mi SSE 4.6 mph - N/A   Mostly Cloudy
5:55 AM 64.4 °F - 64.4 °F 100% 29.66 in 8.0 mi SSE 5.8 mph - N/A   Overcast
6:15 AM 66.2 °F - 66.2 °F 100% 29.65 in 7.0 mi SSE 6.9 mph - N/A   Overcast
6:35 AM 66.2 °F - 66.2 °F 100% 29.66 in 7.0 mi South 5.8 mph - N/A   Overcast
6:50 AM 66.2 °F - 66.2 °F 100% 29.66 in 7.0 mi South 4.6 mph - N/A   Overcast
7:50 AM 68.0 °F - 68.0 °F 100% 29.64 in 7.0 mi South 6.9 mph - N/A   Overcast
9:50 AM 71.6 °F - 69.8 °F 94% 29.62 in 5.0 mi SSW 13.8 mph 27.6 mph N/A Rain Light Rain
10:30 AM 71.6 °F - 69.8 °F 94% 29.65 in 2.0 mi West 17.3 mph - N/A Rain , Thunderstorm Thunderstorms and Rain
10:50 AM 69.8 °F - 68.0 °F 94% 29.63 in 5.0 mi WSW 6.9 mph - N/A Rain Light Rain
11:50 AM 71.6 °F - 69.8 °F 94% 29.63 in 2.0 mi WSW 11.5 mph - N/A Rain , Thunderstorm Thunderstorms and Rain
12:10 PM 69.8 °F - 69.8 °F 100% 29.64 in 3.0 mi WSW 6.9 mph - N/A Rain Light Rain
12:50 PM 73.4 °F - 71.6 °F 94% 29.62 in 7.0 mi West 13.8 mph 26.5 mph N/A   Overcast
1:50 PM 75.2 °F - 69.8 °F 83% 29.60 in 5.0 mi WSW 23.0 mph 31.1 mph N/A   Haze
2:50 PM 80.6 °F 84.6 °F 71.6 °F 74% 29.57 in 7.0 mi WSW 19.6 mph - N/A   Partly Cloudy
3:50 PM 82.4 °F 85.4 °F 68.0 °F 62% 29.55 in 7.0 mi WSW 17.3 mph - N/A   Partly Cloudy
4:50 PM 84.2 °F 86.6 °F 66.2 °F 55% 29.55 in 10.0 mi WSW 16.1 mph - N/A   Partly Cloudy
5:50 PM 82.4 °F 83.9 °F 64.4 °F 54% 29.55 in 10.0 mi SW 17.3 mph - N/A   Clear
6:50 PM 80.6 °F 82.3 °F 64.4 °F 58% 29.57 in 10.0 mi WSW 17.3 mph - N/A   Clear
8:15 PM 73.4 °F - 64.4 °F 73% 29.60 in 10.0 mi SSW 11.5 mph - N/A   Clear
8:35 PM 73.4 °F - 64.4 °F 73% 29.61 in 10.0 mi SSW 12.7 mph 17.3 mph N/A   Clear
8:55 PM 73.4 °F - 62.6 °F 69% 29.61 in 10.0 mi SSW 13.8 mph - N/A   Clear
9:15 PM 71.6 °F - 62.6 °F 73% 29.62 in 10.0 mi SSW 11.5 mph 18.4 mph N/A   Clear
9:35 PM 71.6 °F - 62.6 °F 73% 29.62 in 10.0 mi SSW 10.4 mph - N/A   Clear
9:55 PM 69.8 °F - 62.6 °F 78% 29.63 in 10.0 mi SSW 10.4 mph - N/A   Clear
10:15 PM 69.8 °F - 62.6 °F 78% 29.64 in 10.0 mi SSW 11.5 mph 16.1 mph N/A   Clear
10:35 PM 68.0 °F - 62.6 °F 83% 29.64 in 10.0 mi SSW 11.5 mph - N/A   Clear
10:55 PM 68.0 °F - 62.6 °F 83% 29.64 in 10.0 mi SSW 11.5 mph 17.3 mph N/A   Clear
11:15 PM 68.0 °F - 60.8 °F 78% 29.64 in 10.0 mi SSW 10.4 mph - N/A   Clear
11:35 PM 66.2 °F - 60.8 °F 83% 29.64 in 10.0 mi SSW 11.5 mph - N/A   Clear
11:55 PM 66.2 °F - 60.8 °F 83% 29.65 in 10.0 mi SW 11.5 mph - N/A   Clear